DLH1300 EDDF-LTFM

Flight info

Callsign DLH1300
Flight time N/A
Altitude 23000
Route CINDY5L CINDY Z74 HAREM DCT ASLEP DCT TAKUT L603 DINKU/N0428F310 L603 BESNI/N0456F410 L605 MIQ DCT ALUTU DCT BIBAG DCT ESEGA DCT VELOM DCT GOTAR DCT NALOX DCT BABIT DCT ESIRI DCT ETIDA T390 RILEX
Aircraft A343/H-SDE2E3FGHIJ4J5M1RWXY/LB1D1

Departure

Time 2026-04-17 09:53
Airport Frankfurt Main Airport (EDDF)

Arrival

Time N/A
Airport İstanbul Airport (LTFM)
Time Latitude Longitude Altitude Speed Heading
2026-04-17 09:09 50.04667 8.56048 350 ft 0 kts 339°
2026-04-17 09:39 50.04660 8.56052 350 ft 2 kts 339°
2026-04-17 09:39 50.04644 8.56061 360 ft 2 kts 340°
2026-04-17 09:40 50.04629 8.56070 360 ft 2 kts 340°
2026-04-17 09:40 50.04613 8.56078 360 ft 2 kts 337°
2026-04-17 09:40 50.04603 8.56095 360 ft 2 kts 275°
2026-04-17 09:40 50.04602 8.56120 358 ft 2 kts 260°
2026-04-17 09:41 50.04606 8.56145 360 ft 2 kts 252°
2026-04-17 09:41 50.04607 8.56154 360 ft 0 kts 249°
2026-04-17 09:41 50.04607 8.56155 360 ft 0 kts 249°
2026-04-17 09:42 50.04607 8.56154 360 ft 0 kts 249°
2026-04-17 09:43 50.04606 8.56151 360 ft 1 kts 246°
2026-04-17 09:43 50.04600 8.56131 356 ft 3 kts 246°
2026-04-17 09:43 50.04589 8.56091 357 ft 5 kts 246°
2026-04-17 09:44 50.04572 8.56031 357 ft 7 kts 246°
2026-04-17 09:44 50.04548 8.55974 360 ft 4 kts 216°
2026-04-17 09:44 50.04520 8.55955 358 ft 5 kts 201°
2026-04-17 09:44 50.04482 8.55935 356 ft 7 kts 195°
2026-04-17 09:45 50.04432 8.55914 358 ft 8 kts 195°
2026-04-17 09:45 50.04371 8.55917 355 ft 9 kts 167°
2026-04-17 09:45 50.04308 8.55948 354 ft 10 kts 161°
2026-04-17 09:45 50.04254 8.55960 356 ft 2 kts 214°
2026-04-17 09:46 50.04238 8.55928 360 ft 4 kts 239°
2026-04-17 09:46 50.04225 8.55876 358 ft 6 kts 248°
2026-04-17 09:46 50.04207 8.55804 352 ft 8 kts 249°
2026-04-17 09:46 50.04186 8.55715 355 ft 10 kts 250°
2026-04-17 09:47 50.04161 8.55609 358 ft 11 kts 250°
2026-04-17 09:47 50.04132 8.55487 355 ft 13 kts 250°
2026-04-17 09:47 50.04099 8.55350 354 ft 14 kts 250°
2026-04-17 09:47 50.04063 8.55199 357 ft 16 kts 250°
2026-04-17 09:48 50.04025 8.55035 357 ft 17 kts 250°
2026-04-17 09:48 50.03983 8.54859 353 ft 18 kts 250°
2026-04-17 09:48 50.03938 8.54671 358 ft 19 kts 249°
2026-04-17 09:48 50.03890 8.54473 357 ft 20 kts 249°
2026-04-17 09:49 50.03826 8.54295 358 ft 19 kts 237°
2026-04-17 09:49 50.03776 8.54112 358 ft 19 kts 251°
2026-04-17 09:49 50.03728 8.53921 355 ft 19 kts 249°
2026-04-17 09:49 50.03680 8.53719 357 ft 20 kts 250°
2026-04-17 09:50 50.03629 8.53510 353 ft 21 kts 248°
2026-04-17 09:50 50.03577 8.53299 360 ft 17 kts 250°
2026-04-17 09:50 50.03534 8.53119 358 ft 19 kts 250°
2026-04-17 09:50 50.03490 8.52935 358 ft 15 kts 248°
2026-04-17 09:51 50.03464 8.52837 358 ft 10 kts 247°
2026-04-17 09:51 50.03435 8.52731 354 ft 11 kts 247°
2026-04-17 09:51 50.03401 8.52614 358 ft 9 kts 237°
2026-04-17 09:51 50.03373 8.52599 358 ft 5 kts 194°
2026-04-17 09:52 50.03337 8.52595 354 ft 7 kts 182°
2026-04-17 09:52 50.03167 8.52593 355 ft 54 kts 180°
2026-04-17 09:52 50.02579 8.52604 355 ft 112 kts 179°
2026-04-17 09:52 50.01633 8.52610 354 ft 158 kts 180°
2026-04-17 09:53 50.00453 8.52611 735 ft 171 kts 180°
2026-04-17 09:53 49.99278 8.52637 1418 ft 168 kts 178°
2026-04-17 09:53 49.98502 8.52701 1876 ft 169 kts 176°
2026-04-17 09:53 49.96802 8.52882 2295 ft 203 kts 178°
2026-04-17 09:54 49.95830 8.52915 2581 ft 216 kts 180°
2026-04-17 09:54 49.93808 8.53009 3711 ft 218 kts 178°
2026-04-17 09:54 49.92284 8.53125 4552 ft 221 kts 177°
2026-04-17 09:54 49.90731 8.53281 5335 ft 225 kts 177°
2026-04-17 09:55 49.89157 8.53402 6186 ft 227 kts 178°
2026-04-17 09:55 49.87566 8.53492 6981 ft 231 kts 178°
2026-04-17 09:55 49.85943 8.53596 7707 ft 237 kts 178°
2026-04-17 09:55 49.84848 8.53667 8186 ft 240 kts 178°
2026-04-17 09:56 49.82586 8.53865 9157 ft 247 kts 178°
2026-04-17 09:56 49.80880 8.54080 9882 ft 252 kts 170°
2026-04-17 09:56 49.79266 8.55203 10555 ft 258 kts 137°
2026-04-17 09:56 49.78317 8.57518 11076 ft 267 kts 109°
2026-04-17 09:57 49.77985 8.60435 11384 ft 286 kts 92°
2026-04-17 09:57 49.77872 8.63612 11683 ft 305 kts 93°
2026-04-17 09:57 49.77741 8.66980 12031 ft 322 kts 92°
2026-04-17 09:57 49.77616 8.70535 12363 ft 339 kts 92°
2026-04-17 09:58 49.77487 8.74248 12782 ft 351 kts 92°
2026-04-17 09:58 49.77356 8.78052 13339 ft 358 kts 92°
2026-04-17 09:58 49.77218 8.81933 13950 ft 364 kts 92°
2026-04-17 09:58 49.77076 8.85859 14512 ft 368 kts 92°
2026-04-17 09:59 49.76931 8.89846 15057 ft 373 kts 92°
2026-04-17 09:59 49.76789 8.93720 15537 ft 376 kts 92°
2026-04-17 09:59 49.76640 8.97783 16061 ft 380 kts 92°
2026-04-17 09:59 49.76487 9.01879 16572 ft 383 kts 92°
2026-04-17 10:00 49.76332 9.06016 17159 ft 388 kts 92°
2026-04-17 10:00 49.76024 9.10193 17718 ft 394 kts 99°
2026-04-17 10:00 49.75409 9.14346 18327 ft 399 kts 103°
2026-04-17 10:00 49.74508 9.18422 18880 ft 404 kts 113°
2026-04-17 10:01 49.73302 9.22308 19422 ft 408 kts 117°
2026-04-17 10:01 49.71933 9.26172 19993 ft 411 kts 120°
2026-04-17 10:01 49.70473 9.29983 20546 ft 415 kts 121°
2026-04-17 10:01 49.68955 9.33800 21084 ft 419 kts 121°
2026-04-17 10:02 49.67409 9.37638 21610 ft 422 kts 121°
2026-04-17 10:02 49.65851 9.41505 22132 ft 426 kts 121°
2026-04-17 10:02 49.64291 9.45401 22622 ft 429 kts 121°
2026-04-17 10:02 49.62785 9.49397 23137 ft 433 kts 118°
2026-04-17 10:03 49.61331 9.53491 23605 ft 437 kts 117°
2026-04-17 10:03 49.60379 9.56227 23910 ft 439 kts 117°
2026-04-17 10:03 49.58440 9.61810 24449 ft 443 kts 117°
2026-04-17 10:03 49.56992 9.65944 24803 ft 446 kts 117°
2026-04-17 10:04 49.55993 9.68775 25054 ft 447 kts 118°
2026-04-17 10:04 49.54007 9.74350 25578 ft 450 kts 118°
2026-04-17 10:04 49.52493 9.78574 25961 ft 452 kts 118°
2026-04-17 10:04 49.50965 9.82822 26324 ft 455 kts 118°
2026-04-17 10:05 49.49430 9.87090 26690 ft 457 kts 118°
2026-04-17 10:05 49.48405 9.89931 26922 ft 459 kts 118°
2026-04-17 10:05 49.46828 9.94289 27238 ft 462 kts 118°
2026-04-17 10:05 49.45279 9.98563 27593 ft 465 kts 118°
2026-04-17 10:06 49.43704 10.02903 27969 ft 467 kts 118°
2026-04-17 10:06 49.42116 10.07274 28357 ft 470 kts 118°
2026-04-17 10:06 49.40516 10.11671 28736 ft 472 kts 118°
2026-04-17 10:06 49.38912 10.16080 29116 ft 475 kts 118°
2026-04-17 10:07 49.37301 10.20506 29487 ft 477 kts 118°
2026-04-17 10:07 49.35671 10.24966 29870 ft 480 kts 118°
2026-04-17 10:07 49.34032 10.29436 30234 ft 482 kts 118°
2026-04-17 10:07 49.32383 10.33928 30531 ft 486 kts 118°
2026-04-17 10:08 49.30720 10.38450 30824 ft 488 kts 118°
2026-04-17 10:08 49.29048 10.42991 31106 ft 491 kts 118°
2026-04-17 10:08 49.27367 10.47562 31376 ft 494 kts 118°